1278028828787,16.5074
1278028888787,16.4853
1278028948787,16.6174
1278029008787,16.5559
1278029068787,16.5273
1278029128787,16.5516
1278029188787,16.5504
1278029248787,16.4848
1278029308787,16.5229
1278029368787,16.5368
1278029428787,16.4748
1278029488787,16.5570
1278029548787,16.5104
1278029608787,16.4945
1278029668787,16.4833
1278029728787,16.4685
1278029788787,16.5417
1278029848787,16.4855
1278029908787,16.5402
1278029968787,16.4359
1278030028787,16.4962
1278030088787,16.4880
1278030148787,16.4410
1278030208787,16.4901
1278030268787,16.5032
1278030328787,16.4446
1278030388787,16.4361
1278030448787,16.3871
1278030508787,16.4129
1278030568787,16.4429
1278030628787,16.4738
1278030688787,16.4789
1278030748787,16.5002
1278030808787,16.4454
1278030868787,16.5154
1278030928787,16.5306
1278030988787,16.5888
1278031048787,16.5359
1278031108787,16.5385
1278031168787,16.5171
1278031228787,16.4960
1278031288787,16.4818
1278031348787,16.4968
1278031408787,16.5009
1278031468787,16.5153
1278031528787,16.4967
1278031588787,16.4885
1278031648787,16.4976
1278031708787,16.5408
1278031768787,16.5072
1278031828787,16.4383
1278031888787,16.4564
1278031948787,16.4823
1278032008787,16.4969
1278032068787,16.5024
1278032128787,16.4716
1278032188787,16.4805
1278032248787,16.4714
1278032308787,16.4736
1278032368787,16.4570
1278032428797,16.4407
1278032488797,16.4597
1278032548797,16.4447
1278032608797,16.4744
1278032668797,16.4248
1278032728797,16.4593
1278032788797,16.5730
1278032848797,16.6239
1278032908797,16.6969
1278032968797,16.6542
1278033028797,16.6404
1278033088797,16.5737
1278033148797,16.5910
1278033208797,16.5310
1278033268797,16.5927
1278033328797,16.5481
1278033388797,16.5222
1278033448797,16.6223
1278033508797,16.5589
1278033568797,16.6077
1278033628797,16.4740
1278033688797,16.5097
1278033748797,16.5581
1278033808797,16.5647
1278033868797,16.5633
1278033928797,16.5452
1278033988797,16.5702
1278034048797,16.6047
1278034108797,16.5587
1278034168797,16.5027
1278034228797,16.5360
1278034288797,16.5368
1278034348797,16.5422
1278034408797,16.5477
1278034468797,16.5094
1278034528797,16.5160
1278034588797,16.5557
1278034648797,16.5320
1278034708797,16.4792
1278034768797,16.4594
1278034828797,16.5292
1278034888797,16.5087
1278034948797,16.5387
1278035008797,16.4636
1278035068797,16.4779
1278035128797,16.5151
1278035188797,16.5060
1278035248797,16.4739
1278035308797,16.5110
1278035368797,16.4875
1278035428797,16.5162
1278035488797,16.5117
1278035548797,16.4767
1278035608797,16.4800
1278035668797,16.5498
1278035728797,16.5070
1278035788797,16.5105
1278035848797,16.4768
1278035908797,16.5045
1278035968797,16.5103
1278036028806,16.5404
1278036088806,16.4795
1278036148806,16.4776
1278036208806,16.5494
1278036268806,16.5271
1278036328806,16.5039
1278036388806,16.4526
1278036448806,16.4758
1278036508806,16.4575
1278036568806,16.5058
1278036628806,16.5410
1278036688806,16.4793
1278036748806,16.5745
1278036808806,16.5413
1278036868806,16.5588
1278036928806,16.4961
1278036988806,16.5057
1278037048806,16.4750
1278037108806,16.4722
1278037168806,16.5007
1278037228806,16.4790
1278037288806,16.5125
1278037348806,16.4538
1278037408806,16.4610
1278037468806,16.5182
1278037528806,16.4778
1278037588806,16.4881
1278037648806,16.5216
1278037708806,16.4866
1278037768806,16.3946
1278037828806,16.4457
1278037888806,16.4247
1278037948806,16.4636
1278038008806,16.4645
1278038068806,16.5392
1278038128806,16.4723
1278038188806,16.4461
1278038248806,16.4932
1278038308806,16.4585
1278038368806,16.4887
1278038428806,16.4268
1278038488806,16.5225
1278038548806,16.4463
1278038608806,16.4251
1278038668806,16.4383
1278038728806,16.4770
1278038788806,16.4357
1278038848806,16.4831
1278038908806,16.4494
1278038968806,16.4510
1278039028806,16.4146
1278039088806,16.4796
1278039148806,16.5350
1278039208806,16.5170
1278039268806,16.4097
1278039328806,16.5261
1278039388806,16.4607
1278039448806,16.4379
1278039508806,16.4866
1278039568806,16.4673
1278039628815,16.4208
1278039688815,16.4444
1278039748815,16.4065
1278039808815,16.4088
1278039868815,16.4544
1278039928815,16.4522
1278039988815,16.4215
1278040048815,16.4274
1278040108815,16.4042
1278040168815,16.4420
1278040228815,16.4268
1278040288815,16.4268
1278040348815,16.4135
1278040408815,16.4430
1278040468815,16.4688
1278040528815,16.4235
1278040588815,16.4440
1278040648815,16.4762
1278040708815,16.4510
1278040768815,16.4513
1278040828815,16.4556
1278040888815,16.3738
1278040948815,16.4562
1278041008815,16.4600
1278041068815,16.4350
1278041128815,16.4423
1278041188815,16.4415
1278041248815,16.4099
1278041308815,16.4817
1278041368815,16.4273
1278041428815,16.4670
1278041488815,16.4191
1278041548815,16.4485
1278041608815,16.4203
1278041668815,16.4520
1278041728815,16.4459
1278041788815,16.3507
1278041848815,16.4127
1278041908815,16.4021
1278041968815,16.4445
1278042028815,16.4332
1278042088815,16.4267
1278042148815,16.4706
1278042208815,16.3635
1278042268815,16.3808
1278042328815,16.3977
1278042388815,16.3927
1278042448815,16.4507
1278042508815,16.3695
1278042568815,16.4227
1278042628815,16.4272
1278042688815,16.4804
1278042748815,16.4154
1278042808815,16.4229
1278042868815,16.4339
1278042928815,16.4595
1278042988815,16.4930
1278043048815,16.4099
1278043108815,16.4847
1278043168815,16.4773
1278043228824,16.4654
1278043288824,16.4178
1278043348824,16.4531
1278043408824,16.4907
1278043468824,16.4050
1278043528824,16.4497
1278043588824,16.3884
1278043648824,16.4438
1278043708824,16.4465
1278043768824,16.4326
1278043828824,16.3626
1278043888824,16.3890
1278043948824,16.4388
1278044008824,16.3689
1278044068824,16.3980
1278044128824,16.4411
1278044188824,16.4357
1278044248824,16.3476
1278044308824,16.3785
1278044368824,16.4327
1278044428824,16.4366
1278044488824,16.4082
1278044548824,16.3734
1278044608824,16.4026
1278044668824,16.4692
1278044728824,16.4350
1278044788824,16.4128
1278044848824,16.3490
1278044908824,16.3531
1278044968824,16.3919
1278045028824,16.3534
1278045088824,16.3920
1278045148824,16.3810
1278045208824,16.3834
1278045268824,16.3655
1278045328824,16.4316
1278045388824,16.3548
1278045448824,16.3528
1278045508824,16.3412
1278045568824,16.4678
1278045628824,16.4510
1278045688824,16.3799
1278045748824,16.3878
1278045808824,16.4134
1278045868824,16.3947
1278045928824,16.4230
1278045988824,16.4918
1278046048824,16.4371
1278046108824,16.4803
1278046168824,16.4911
1278046228824,16.4428
1278046288824,16.4438
1278046348824,16.4908
1278046408824,16.5150
1278046468824,16.4519
1278046528824,16.4592
1278046588824,16.4761
1278046648824,16.4503
1278046708824,16.4432
1278046768824,16.4402
1278046828833,16.4182
1278046888833,16.3796
1278046948833,16.4038
1278047008833,16.4302
1278047068833,16.3905
1278047128833,16.3934
1278047188833,16.3567
1278047248833,16.4334
1278047308833,16.4148
1278047368833,16.3798
1278047428833,16.3936
1278047488833,16.4413
1278047548833,16.4180
1278047608833,16.3471
1278047668833,16.4444
1278047728833,16.4370
1278047788833,16.3868
1278047848833,16.4063
1278047908833,16.3782
1278047968833,16.4052
1278048028833,16.3348
1278048088833,16.3738
1278048148833,16.3733
1278048208833,16.4067
1278048268833,16.3503
1278048328833,16.3885
1278048388833,16.3892
1278048448833,16.3664
1278048508833,16.3467
1278048568833,16.3739
1278048628833,16.3370
1278048688833,16.3701
1278048748833,16.3575
1278048808833,16.3527
1278048868833,16.4018
1278048928833,16.4305
1278048988833,16.4584
1278049048833,16.4017
1278049108833,16.3725
1278049168833,16.3885
1278049228833,16.3882
1278049288833,16.4232
1278049348833,16.4187
1278049408833,16.3404
1278049468833,16.4403
1278049528833,16.3609
1278049588833,16.4254
1278049648833,16.4058
1278049708833,16.4299
1278049768833,16.4473
1278049828833,16.4328
1278049888833,16.4442
1278049948833,16.4243
1278050008833,16.4566
1278050068833,16.4384
1278050128833,16.3951
1278050188833,16.3396
1278050248833,16.4489
1278050308833,16.3930
1278050368833,16.3832
1278050428841,16.4110
1278050488841,16.3985
1278050548841,16.4318
1278050608841,16.3593
1278050668841,16.4461
1278050728841,16.3708
1278050788841,16.3902
1278050848841,16.4272
1278050908841,16.3011
1278050968841,16.3664
1278051028841,16.4074
1278051088841,16.3219
1278051148841,16.3562
1278051208841,16.4054
1278051268841,16.3698
1278051328841,16.3392
1278051388841,16.3706
1278051448841,16.3737
1278051508841,16.3360
1278051568841,16.3268
1278051628841,16.3777
1278051688841,16.3248
1278051748841,16.3668
1278051808841,16.3453
1278051868841,16.3689
1278051928841,16.4010
1278051988841,16.3764
1278052048841,16.3672
1278052108841,16.4165
1278052168841,16.3884
1278052228841,16.3901
1278052288841,16.4089
1278052348841,16.4000
1278052408841,16.3539
1278052468841,16.3977
1278052528841,16.3835
1278052588841,16.3946
1278052648841,16.4108
1278052708841,16.4511
1278052768841,16.3858
1278052828841,16.4052
1278052888841,16.3729
1278052948841,16.3484
1278053008841,16.3887
1278053068841,16.4171
1278053128841,16.4047
1278053188841,16.3563
1278053248841,16.3632
1278053308841,16.3802
1278053368841,16.3420
1278053428841,16.4348
1278053488841,16.3684
1278053548841,16.3736
1278053608841,16.3185
1278053668841,16.3932
1278053728841,16.3661
1278053788841,16.3836
1278053848841,16.3575
1278053908841,16.3064
1278053968841,16.3937
1278054028850,16.2980
1278054088850,16.3284
1278054148850,16.3486
1278054208850,16.3381
1278054268850,16.3058
1278054328850,16.3270
1278054388850,16.3971
1278054448850,16.3541
1278054508850,16.3576
1278054568850,16.3487
1278054628850,16.4178
1278054688850,16.4042
1278054748850,16.5048
1278054808850,16.3910
1278054868850,16.3508
1278054928850,16.3835
1278054988850,16.4038
1278055048850,16.3922
1278055108850,16.3568
1278055168850,16.3516
1278055228850,16.3983
1278055288850,16.4197
1278055348850,16.4355
1278055408850,16.3715
1278055468850,16.4400
1278055528850,16.4370
1278055588850,16.3472
1278055648850,16.4309
1278055708850,16.3415
1278055768850,16.4451
1278055828850,16.4506
1278055888850,16.3939
1278055948850,16.4256
1278056008850,16.3642
1278056068850,16.4073
1278056128850,16.4129
1278056188850,16.4559
1278056248850,16.4152
1278056308850,16.4233
1278056368850,16.4588
1278056428850,16.4521
1278056488850,16.3801
1278056548850,16.4226
1278056608850,16.3750
1278056668850,16.4639
1278056728850,16.4853
1278056788850,16.4546
1278056848850,16.4733
1278056908850,16.5112
1278056968850,16.4887
1278057028850,16.4447
1278057088850,16.4479
1278057148850,16.4223
1278057208850,16.4904
1278057268850,16.4772
1278057328850,16.4585
1278057388850,16.4634
1278057448850,16.4128
1278057508850,16.3830
1278057568850,16.4527
1278057628858,16.4333
1278057688858,16.3932
1278057748858,16.3869
1278057808858,16.4198
1278057868858,16.3881
1278057928858,16.4130
1278057988858,16.3973
1278058048858,16.3429
1278058108858,16.3705
1278058168858,16.3524
1278058228858,16.4022
1278058288858,16.3422
1278058348858,16.3760
1278058408858,16.4083
1278058468858,16.3975
1278058528858,16.3762
1278058588858,16.3494
1278058648858,16.4127
1278058708858,16.3341
1278058768858,16.3423
1278058828858,16.4181
1278058888858,16.3373
1278058948858,16.3213
1278059008858,16.3249
1278059068858,16.3506
1278059128858,16.3465
1278059188858,16.3953
1278059248858,16.4340
1278059308858,16.4072
1278059368858,16.3895
1278059428858,16.3806
1278059488858,16.2880
1278059548858,16.3745
1278059608858,16.3473
1278059668858,16.4207
1278059728858,16.3221
1278059788858,16.3290
1278059848858,16.3273
1278059908858,16.3616
1278059968858,16.3357
1278060028858,16.3544
1278060088858,16.3698
1278060148858,16.3888
1278060208858,16.3848
1278060268858,16.3842
1278060328858,16.4523
1278060388858,16.3450
1278060448858,16.3189
1278060508858,16.3459
1278060568858,16.3918
1278060628858,16.3834
1278060688858,16.3424
1278060748858,16.3822
1278060808858,16.4106
1278060868858,16.3644
1278060928858,16.3585
1278060988858,16.3951
1278061048858,16.3345
1278061108858,16.3450
1278061168858,16.4017
1278061228866,16.3292
1278061288866,16.4301
1278061828866,16.4077
1278061888866,16.4070
1278061948866,16.3568
1278062008866,16.3634
1278062068866,16.3361
1278062128866,16.3246
1278062188866,16.3231
1278062248866,16.4709
1278062308866,16.3759
1278062368866,16.3880
1278062428866,16.3512
1278062488866,16.3787
1278062548866,16.3863
1278062608866,16.4072
1278062668866,16.3594
1278062728866,16.4151
1278062788866,16.4137
1278062848866,16.3780
1278062908866,16.4466
1278062968866,16.4337
1278063028866,16.3999
1278063088866,16.4243
1278063148866,16.4417
1278063208866,16.3686
1278063268866,16.4362
1278063328866,16.4049
1278063388866,16.3613
1278063448866,16.3994
1278063508866,16.3768
1278063568866,16.3781
1278063628866,16.3763
1278063688866,16.4126
1278063748866,16.3666
1278063808866,16.4581
1278063868866,16.4382
1278063928866,16.4097
1278063988866,16.4549
1278064048866,16.4684
1278064108866,16.3967
1278064168866,16.3967
1278064228866,16.3766
1278064288866,16.3063
1278064348866,16.3991
1278064408866,16.4349
1278064468866,16.3462
1278064528866,16.3966
1278064588866,16.3616
1278064648866,16.4015
1278064708866,16.4057
1278064768866,16.3863
1278064828875,16.3691
1278064888875,16.4124
1278064948875,16.4140
1278065008875,16.3880
1278065068875,16.4285
1278065128875,16.4128
1278065188875,16.3741
1278065248875,16.3655
1278065308875,16.4017
1278065368875,16.4126
1278065428875,16.4504
1278065488875,16.4274
1278065548875,16.3729
1278065608875,16.3264
1278065668875,16.3950
1278065728875,16.3694
1278065788875,16.3942
1278065848875,16.4036
1278065908875,16.4111
1278065968875,16.4351
1278066028875,16.3898
1278066088875,16.3946
1278066148875,16.3980
1278066208875,16.3989
1278066268875,16.3526
1278066328875,16.4105
1278066388875,16.3885
1278066448875,16.3995
1278066508875,16.3642
1278066568875,16.3695
1278066628875,16.4054
1278066688875,16.4391
1278066748875,16.4024
1278066808875,16.4058
1278066868875,16.4342
1278066928875,16.4698
1278066988875,16.3976
1278067048875,16.3585
1278067108875,16.4584
1278067168875,16.4455
1278067228875,16.4005
1278067288875,16.4479
1278067348875,16.4069
1278067408875,16.4399
1278067468875,16.4460
1278067528875,16.4939
1278067588875,16.4711
1278067648875,16.5113
1278067708875,16.4825
1278067768875,16.4633
1278067828875,16.4671
1278067888875,16.4939
1278067948875,16.4801
1278068008875,16.4610
1278068068875,16.5199
1278068128875,16.4940
1278068188875,16.5441
1278068248875,16.4543
1278068308875,16.4890
1278068368875,16.4936
1278068428883,16.5184
1278068488883,16.5305
1278068548883,16.4925
1278068608883,16.4919
1278068668883,16.5869
1278068728883,16.5781
1278068788883,16.5480
1278068848883,16.5585
1278068908883,16.5716
1278068968883,16.5729
1278069028883,16.5710
1278069088883,16.6247
1278069148883,16.5749
1278069208883,16.5499
1278069268883,16.5631
1278069328883,16.5888
1278069388883,16.5974
1278069448883,16.5811
1278069508883,16.5513
1278069568883,16.5426
1278069628883,16.5147
1278069688883,16.5765
1278069748883,16.6415
1278069808883,16.5242
1278069868883,16.5734
1278069928883,16.5750
1278069988883,16.5385
1278070048883,16.5704
1278070108883,16.5495
1278070168883,16.5481
1278070228883,16.6174
1278070288883,16.5768
1278070348883,16.5964
1278070408883,16.5679
1278070468883,16.4697
1278070528883,16.5565
1278070588883,16.5534
1278070648883,16.5277
1278070708883,16.4931
1278070768883,16.4811
1278070828883,16.5904
1278070888883,16.4997
1278070948883,16.5125
1278071008883,16.5148
1278071068883,16.5426
1278071128883,16.4995
1278071188883,16.5470
1278071248883,16.4504
1278071308883,16.5197
1278071368883,16.4067
1278071428883,16.5038
1278071488883,16.4015
1278071548883,16.5471
1278071608883,16.5275
1278071668883,16.4915
1278071728883,16.5160
1278071788883,16.5231
1278071848883,16.5151
1278071908883,16.4847
1278071968883,16.5043
1278072028892,16.4569
1278072088892,16.5115
1278072148892,16.4667
1278072208892,16.5818
1278072268892,16.5382
1278072328892,16.5032
1278072388892,16.5056
1278072448892,16.5386
1278072508892,16.5024
1278072568892,16.5788
1278072628892,16.5066
1278072688892,16.4999
1278072748892,16.5384
1278072808892,16.5322
1278072868892,16.5759
1278072928892,16.6001
1278072988892,16.5554
1278073048891,16.5375
1278073108891,16.6076
1278073168891,16.5295
1278073228891,16.6057
1278073288891,16.6121
1278073348892,16.5760
1278073408892,16.5743
1278073468892,16.6075
1278073528892,16.5364
1278073588892,16.5324
1278073648892,16.5871
1278073708892,16.5915
1278073768892,16.6177
1278073828892,16.6125
1278073888892,16.5700
1278073948892,16.5754
1278074008892,16.5860
1278074068892,16.5992
1278074128892,16.6161
1278074188892,16.5014
1278074248892,16.6364
1278074308892,16.5546
1278074368891,16.5820
1278074428891,16.5984
1278074488891,16.5487
1278074548891,16.6090
1278074608891,16.5737
1278074668891,16.6363
1278074728892,16.6162
1278074788892,16.5850
1278074848892,16.6424
1278074908892,16.6361
1278074968892,16.6094
1278075028892,16.5752
1278075088892,16.5778
1278075148892,16.6504
1278075208892,16.6430
1278075268892,16.6054
1278075328892,16.6469
1278075388892,16.6307
1278075448892,16.5794
1278075508892,16.6435
1278075568892,16.6041
1278075628900,16.6819
1278075688900,16.6439
1278075748900,16.6623
1278075808900,16.6784
1278075868900,16.6348
1278075928900,16.6358
1278075988900,16.6296
1278076048900,16.6153
1278076108900,16.5628
1278076168900,16.6096
1278076228900,16.6228
1278076288900,16.6458
1278076348900,16.6413
1278076408900,16.6423
1278076468900,16.6365
1278076528900,16.6963
1278076588900,16.6222
1278076648900,16.6530
1278076708900,16.6155
1278076768900,16.6622
1278076828900,16.6114
1278076888900,16.6039
1278076948900,16.6853
1278077008900,16.6313
1278077068900,16.6017
1278077128900,16.6189
1278077188900,16.6186
1278077248900,16.6738
1278077308900,16.6314
1278077368900,16.6625
1278077428900,16.6151
1278077488900,16.6612
1278077548900,16.5874
1278077608900,16.6085
1278077668900,16.5318
1278077728900,16.5996
1278077788900,16.5914
1278077848900,16.6746
1278077908900,16.6941
1278077968900,16.6607
1278078028900,16.6382
1278078088900,16.6837
1278078148900,16.6368
1278078208900,16.6499
1278078268900,16.6621
1278078328900,16.6313
1278078388900,16.5701
1278078448900,16.5560
1278078508900,16.6268
1278078568900,16.5668
1278078628900,16.5786
1278078688900,16.5823
1278078748900,16.5543
1278078808900,16.6143
1278078868900,16.6437
1278078928900,16.5535
1278078988900,16.6295
1278079048900,16.6512
1278079108900,16.6541
1278079168900,16.5883
1278079228908,16.6795
1278079288908,16.6844
1278079348908,16.6281
1278079408908,16.5914
1278079468908,16.5345
1278079528908,16.6224
1278079588908,16.6463
1278079648908,16.6249
1278079708908,16.6543
1278079768908,16.6934
1278079828908,16.6965
1278079888908,16.6164
1278079948908,16.5864
1278080008908,16.5769
1278080068908,16.5935
1278080128908,16.5859
1278080188908,16.5422
1278080248908,16.5997
1278080308908,16.6026
1278080368908,16.5799
1278080428908,16.5646
1278080488908,16.5528
1278080548908,16.6335
1278080608908,16.6184
1278080668908,16.6245
1278080728908,16.5771
1278080788908,16.5535
1278080848908,16.5447
1278080908908,16.5574
1278080968908,16.5877
1278081028908,16.5436
1278081088908,16.5734
1278081148908,16.6079
1278081208908,16.5220
1278081268908,16.5915
1278081328908,16.5296
1278081388908,16.6081
1278081448908,16.5358
1278081508908,16.5703
1278081568908,16.4668
1278081628908,16.5457
1278081688908,16.5494
1278081748908,16.5759
1278081808908,16.4989
1278081868908,16.5207
1278081928908,16.5290
1278081988908,16.5631
1278082048908,16.5614
1278082108908,16.5479
1278082168908,16.5880
1278082228908,16.5784
1278082288908,16.5548
1278082348908,16.5327
1278082408908,16.6056
1278082468908,16.5105
1278082528908,16.5911
1278082588908,16.5435
1278082648908,16.5908
1278082708908,16.6017
1278082768908,16.5283
1278082828917,16.5469
1278082888917,16.5473
1278082948917,16.5486
1278083008917,16.5353
1278083068917,16.5899
1278083128917,16.5650
1278083188917,16.5334
1278083248917,16.5525
1278083308917,16.5875
1278083368917,16.5700
1278083428917,16.5398
1278083488917,16.5578
1278083548917,16.5577
1278083608917,16.5685
1278083668917,16.5773
1278083728917,16.5259
1278083788917,16.5776
1278083848917,16.5960
1278083908917,16.5329
1278083968917,16.5102
1278084028917,16.5135
1278084088917,16.5002
1278084148917,16.4998
1278084208917,16.5392
1278084268917,16.5509
1278084328917,16.4827
1278084388917,16.4938
1278084448917,16.4954
1278084508917,16.5573
1278084568917,16.5642
1278084628917,16.5485
1278084688917,16.5451
1278084748917,16.5435
1278084808917,16.5441
1278084868917,16.6208
1278084928917,16.6010
1278084988917,16.5803
1278085048917,16.5722
1278085108917,16.5322
1278085168917,16.5603
1278085228917,16.5624
1278085288917,16.5219
1278085348917,16.5658
1278085408917,16.5124
1278085468917,16.4795
1278085528917,16.5402
1278085588917,16.5257
1278085648917,16.5529
1278085708917,16.5080
1278085768917,16.5667
1278085828917,16.5459
1278085888917,16.5143
1278085948917,16.4936
1278086008917,16.6153
1278086068917,16.6319
1278086128917,16.5413
1278086188917,16.5218
1278086248917,16.5684
1278086308917,16.5365
1278086368917,16.5487
1278086428926,16.5024
1278086488926,16.5583
1278086548926,16.5368
1278086608926,16.5633
1278086668926,16.4772
1278086728926,16.5790
1278086788926,16.5235
1278086848926,16.5485
1278086908926,16.5222
1278086968926,16.5720
1278087028926,16.5052
1278087088926,16.5157
1278087148926,16.5357
1278087208926,16.5123
1278087268926,16.5297
1278087328926,16.5315
1278087388926,16.5559
1278087448926,16.5418
1278087508926,16.5050
1278087568926,16.4899
1278087628926,16.5190
1278087688926,16.5058
1278087748926,16.4927
1278087808926,16.4319
1278087868926,16.4808
1278087928926,16.4871
1278087988926,16.4861
1278088048926,16.5217
1278088108926,16.5057
1278088168926,16.5323
1278088228926,16.5048
1278088288926,16.5374
1278088348926,16.5335
1278088408926,16.5468
1278088468926,16.5679
1278088528926,16.4993
1278088588926,16.5480
1278088648926,16.4978
1278088708926,16.5229
1278088768926,16.4649
1278088828926,16.5910
1278088888926,16.5854
1278088948926,16.5688
1278089008926,16.5747
1278089068926,16.5623
1278089128926,16.5274
1278089188926,16.5947
1278089248926,16.4984
1278089308926,16.5620
1278089368926,16.6120
1278089428926,16.6109
1278089488926,16.5578
1278089548926,16.5191
1278089608926,16.6030
1278089668926,16.5509
1278089728926,16.4970
1278089788926,16.5670
1278089848926,16.6035
1278089908926,16.5402
1278089968926,16.5760
1278090028935,16.5200
1278090088935,16.5554
1278090148935,16.6100
1278090208935,16.5771
1278090268935,16.5693
1278090328935,16.6575
1278090388935,16.5550
1278090448935,16.6055
1278090508935,16.4900
1278090568935,16.5753
1278090628935,16.5195
1278090688935,16.5438
1278090748935,16.5826
1278090808935,16.6568
1278090868935,16.6015
1278090928935,16.5564
1278090988935,16.6022
1278091048935,16.5485
1278091108935,16.5808
1278091168935,16.5713
1278091228935,16.5736
1278091288935,16.5666
1278091348935,16.5489
1278091408935,16.5394
1278091468935,16.5544
1278091528935,16.5385
1278091588935,16.5731
1278091648935,16.6193
1278091708935,16.5845
1278091768935,16.5183
1278091828935,16.6258
1278091888935,16.5663
1278091948935,16.5893
1278092008935,16.5639
1278092068935,16.5911
1278092128935,16.5650
1278092188935,16.5155
1278092248935,16.5355
1278092308935,16.5692
1278092368935,16.5759
1278092428935,16.5785
1278092488935,16.6188
1278092548935,16.5986
1278092608935,16.5551
1278092668935,16.5488
1278092728935,16.5720
1278092788935,16.5155
1278092848935,16.5090
1278092908935,16.4915
1278092968935,16.5297
1278093028935,16.4574
1278093088935,16.4721
1278093148935,16.4705
1278093208935,16.5704
1278093268935,16.5615
1278093328935,16.5286
1278093388935,16.4169
1278093448935,16.5277
1278093508935,16.5265
1278093568935,16.6039
1278093628944,16.4977
1278093688944,16.5554
1278093748944,16.5791
1278093808944,16.5852
1278093868944,16.6041
1278093928944,16.5398
1278093988944,16.5808
1278094048944,16.5147
1278094108944,16.5960
1278094168944,16.4804
1278094228944,16.6169
1278094288944,16.6011
1278094348944,16.5035
1278094408944,16.4557
1278094468944,16.5372
1278094528944,16.5182
1278094588944,16.5339
1278094648944,16.4700